EW3808 Weather Reports


Display with metric or nautical units.
time (UTC)temp
F
wind
direction
speed
MPH
gust
MPH
rain 1hr
in
rain 24hr
in
rain mn
in
humidity
%
barometer
mb
20260906100919 47 159 3.0 7.0 0.00 0.00 0.00 59 1023.3
20260906095918 48 157 3.0 8.0 0.00 0.00 0.00 58 1023.3
20260906094921 48 140 0.0 8.0 0.00 0.00 0.00 57 1023.2
20260906092725 48 151 3.0 0.0 0.00 0.00 0.00 57 1023.2
20260906091748 48 126 3.0 8.0 0.00 0.00 0.00 57 1023.3
20260906090721 48 139 1.0 8.0 0.00 0.00 0.00 57 1023.2
20260906085737 48 155 0.0 0.0 0.00 0.00 0.00 56 1023.2
20260906084723 49 149 3.0 0.0 0.00 0.00 0.00 56 1023.2
20260906083718 49 161 4.0 9.0 0.00 0.00 0.00 55 1023.1
20260906082729 49 175 2.0 9.0 0.00 0.00 0.00 55 1023.1
20260906081732 49 140 1.0 9.0 0.00 0.00 0.00 55 1023.2
20260906080729 49 167 0.0 0.0 0.00 0.00 0.00 54 1023.1
20260906075740 48 186 0.0 0.0 0.00 0.00 0.00 59 1023.2
20260906074743 48 152 0.0 0.0 0.00 0.00 0.00 56 1023.1
20260906071459 49 153 0.0 5.0 0.00 0.00 0.00 55 1023.2
20260906070430 49 154 1.0 10.0 0.00 0.00 0.00 54 1023.1
20260906065409 49 126 4.0 9.0 0.00 0.00 0.00 53 1023.0
20260906063257 49 150 1.0 0.0 0.00 0.00 0.00 53 1023.0
20260906062258 50 139 2.0 0.0 0.00 0.00 0.00 53 1022.8
20260906060223 51 160 4.0 10.0 0.00 0.00 0.00 51 1022.7
20260906055203 50 150 5.0 10.0 0.00 0.00 0.00 51 1022.7
20260906054156 50 142 1.0 10.0 0.00 0.00 0.00 51 1022.7
20260906053216 50 137 3.0 8.0 0.00 0.00 0.00 51 1022.7
20260906052208 51 154 3.0 0.0 0.00 0.00 0.00 51 1022.7
20260906051207 51 133 0.0 8.0 0.00 0.00 0.00 51 1022.8
20260906045038 51 118 4.0 9.0 0.00 0.00 0.00 50 1022.8
20260906044057 52 138 3.0 9.0 0.00 0.00 0.00 49 1022.9
20260906043119 52 149 3.0 8.0 0.00 0.00 0.00 49 1022.9
20260906042124 53 140 0.0 7.0 0.00 0.00 0.00 47 1022.8
20260906041133 53 153 3.0 8.0 0.00 0.00 0.00 46 1022.7
20260906040100 53 134 0.0 8.0 0.00 0.00 0.00 46 1022.7
20260906034003 53 125 0.0 8.0 0.00 0.00 0.00 45 1022.5
20260906033014 54 133 1.0 0.0 0.00 0.00 0.00 46 1022.3
20260906032005 54 142 2.0 7.0 0.00 0.00 0.00 45 1022.1
20260906031021 54 138 0.0 0.0 0.00 0.00 0.00 45 1022.0
20260906024916 56 143 0.0 0.0 0.00 0.00 0.00 42 1021.8
20260906023857 57 154 0.0 0.0 0.00 0.00 0.00 42 1021.5
20260906022914 57 152 0.0 0.0 0.00 0.00 0.00 41 1021.3
20260906020809 60 147 0.0 0.0 0.00 0.00 0.00 38 1021.0
20260906015831 61 155 0.0 0.0 0.00 0.00 0.00 37 1021.0
20260906014805 62 159 0.0 0.0 0.00 0.00 0.00 35 1021.1
20260906013753 63 161 0.0 0.0 0.00 0.00 0.00 33 1021.2
20260906012749 64 159 0.0 0.0 0.00 0.00 0.00 32 1021.1
20260906011721 65 157 0.0 0.0 0.00 0.00 0.00 30 1021.2
20260906010648 67 155 0.0 0.0 0.00 0.00 0.00 26 1021.1
20260906005620 67 148 0.0 0.0 0.00 0.00 0.00 26 1021.1
20260906004558 68 251 0.0 5.0 0.00 0.00 0.00 25 1021.1
20260906003559 69 261 0.0 2.0 0.00 0.00 0.00 22 1021.0
20260906002611 69 259 2.0 13.0 0.00 0.00 0.00 22 1021.0
20260906001603 71 190 0.0 6.0 0.00 0.00 0.00 22 1020.9
20260906000559 71 218 3.0 4.0 0.00 0.00 0.00 20 1020.9
20260905235611 73 177 3.0 11.0 0.00 0.00 0.00 20 1020.8
20260905234554 74 253 2.0 11.0 0.00 0.00 0.00 21 1020.7
20260905233606 74 281 0.0 1.0 0.00 0.00 0.00 19 1020.7
20260905232627 74 192 3.0 13.0 0.00 0.00 0.00 20 1020.7
20260905225404 74 253 2.0 11.0 0.00 0.00 0.00 21 1020.5
20260905224411 73 175 0.0 4.0 0.00 0.00 0.00 23 1020.7
20260905223336 72 131 2.0 11.0 0.00 0.00 0.00 21 1020.7
20260905220003 71 267 0.0 6.0 0.00 0.00 0.00 26 1021.0
20260905214949 72 215 2.0 12.0 0.00 0.00 0.00 25 1021.2
20260905212817 72 161 2.0 11.0 0.00 0.00 0.00 22 1021.2
20260905211820 73 186 4.0 19.0 0.00 0.00 0.00 24 1021.3
20260905205719 72 136 2.0 0.0 0.00 0.00 0.00 23 1021.5
20260905204649 72 173 4.0 19.0 0.00 0.00 0.00 23 1021.5
20260905203628 72 86 5.0 19.0 0.00 0.00 0.00 24 1021.4
20260905202639 72 163 4.0 19.0 0.00 0.00 0.00 23 1021.6
20260905201651 72 158 5.0 19.0 0.00 0.00 0.00 24 1021.5
20260905200650 71 165 4.0 15.0 0.00 0.00 0.00 25 1021.7
20260905195625 70 171 6.0 17.0 0.00 0.00 0.00 25 1021.6
20260905194614 70 134 5.0 17.0 0.00 0.00 0.00 25 1021.6
20260905193631 70 153 6.0 16.0 0.00 0.00 0.00 27 1021.7
20260905192635 69 203 5.0 16.0 0.00 0.00 0.00 26 1021.7
20260905191653 69 208 6.0 18.0 0.00 0.00 0.00 24 1021.9
20260905185532 68 128 4.0 18.0 0.00 0.00 0.00 28 1022.1
20260905184505 68 244 5.0 16.0 0.00 0.00 0.00 29 1022.2
20260905183509 68 163 4.0 12.0 0.00 0.00 0.00 32 1022.4
20260905182521 68 107 1.0 9.0 0.00 0.00 0.00 34 1022.3
20260905181532 67 172 7.0 17.0 0.00 0.00 0.00 32 1022.4
20260905180548 69 88 3.0 14.0 0.00 0.00 0.00 34 1022.5
20260905173203 67 237 3.0 12.0 0.00 0.00 0.00 33 1022.6
20260905172158 66 104 2.0 12.0 0.00 0.00 0.00 35 1022.6
20260905170018 66 105 3.0 14.0 0.00 0.00 0.00 33 1022.7
20260905165031 66 234 2.0 14.0 0.00 0.00 0.00 36 1022.7
20260905164016 66 219 0.0 10.0 0.00 0.00 0.00 35 1022.6
20260905163022 66 201 1.0 0.0 0.00 0.00 0.00 35 1022.6
20260905160854 65 192 4.0 11.0 0.00 0.00 0.00 38 1022.5
20260905155834 65 117 2.0 8.0 0.00 0.00 0.00 37 1022.5
20260905154831 64 109 2.0 8.0 0.00 0.00 0.00 40 1022.6
20260905153759 64 171 0.0 4.0 0.00 0.00 0.00 42 1022.7
20260905152811 62 128 0.0 0.0 0.00 0.00 0.00 43 1022.7
20260905151817 61 127 0.0 0.0 0.00 0.00 0.00 44 1022.7
20260905150836 60 130 0.0 0.0 0.00 0.00 0.00 47 1022.7
20260905144715 55 155 0.0 0.0 0.00 0.00 0.00 58 1022.7
20260905143703 53 156 0.0 0.0 0.00 0.00 0.00 63 1022.6
20260905142717 51 157 0.0 0.0 0.00 0.00 0.00 63 1022.7
20260905141650 49 155 3.0 8.0 0.00 0.00 0.00 67 1022.5
20260905140656 47 148 4.0 9.0 0.00 0.00 0.00 68 1022.5
20260905135708 46 133 6.0 9.0 0.00 0.00 0.00 69 1022.4
20260905134725 46 136 5.0 8.0 0.00 0.00 0.00 69 1022.4
20260905133732 46 121 3.0 8.0 0.00 0.00 0.00 69 1022.4
20260905130500 47 129 4.0 8.0 0.00 0.00 0.00 67 1021.9
20260905125452 47 121 4.0 8.0 0.00 0.00 0.00 67 1021.7
20260905124431 47 156 5.0 8.0 0.00 0.00 0.00 67 1021.6
20260905123447 47 143 4.0 8.0 0.00 0.00 0.00 67 1021.5
20260905121310 47 134 2.0 9.0 0.00 0.00 0.00 67 1021.3
20260905120328 47 130 2.0 8.0 0.00 0.00 0.00 67 1021.2
20260905115315 47 131 4.0 7.0 0.00 0.00 0.00 67 1021.3
20260905114310 48 140 4.0 10.0 0.00 0.00 0.00 67 1021.3
20260905110935 48 140 4.0 8.0 0.00 0.00 0.00 66 1021.1
20260905105901 48 154 1.0 0.0 0.00 0.00 0.00 66 1021.0
20260905104832 48 148 3.0 8.0 0.00 0.00 0.00 66 1020.9
20260905103847 49 132 1.0 7.0 0.00 0.00 0.00 65 1021.0
20260905102905 49 126 2.0 0.0 0.00 0.00 0.00 65 1021.1
20260905101902 49 123 1.0 8.0 0.00 0.00 0.00 65 1021.1